Location: Unspecified
(43.3830°N, 0.0000°E)
Time: 22:45:56
(UTC+00:00)

Explorer 7 - Pass Details

Date: 03 July 2019
Orbit: 485 x 680 km, 50.3° (Epoch: 19 July)

Event Time Altitude Azimuth Distance (km) Brightness Sun altitude
Rises 04:33:16 0° 230° (SW) 2,585 9.6 0.6°
Reaches altitude 10° 04:35:24 10° 227° (SW) 1,725 8.7 0.9°
Maximum altitude 04:39:16 64° 146° (SE) 590 7.1 1.5°
Drops below altitude 10° 04:43:24 10° 65° (ENE) 1,836 12.0 2.1°
Sets 04:45:44 0° 62° (ENE) 2,770 14.1 2.5°
